Le nostre stazioni meteo in Italia

Pubblicità
Il mio iltempo24.it
Paganella, Italia (16022): Temperatura & dewpoint: 07.12.2018 22:00:00 - 13.12.2018 22:00:00 (CET)Paganella, Italia (16022): velocità del vento: 07.12.2018 22:00:00 - 13.12.2018 22:00:00 (CET)Paganella, Italia (16022): direzione del vento: 07.12.2018 22:00:00 - 13.12.2018 22:00:00 (CET)Paganella, Italia (16022): visibility: 07.12.2018 22:00:00 - 13.12.2018 22:00:00 (CET)Paganella, Italia (16022): ore di luce: 07.12.2018 22:00:00 - 13.12.2018 22:00:00 (CET)
Data & Tempo tt [°C] td [°C] ff [km/h] ff [kn] dd vv [km] sd [min]
13.12.2018 22:00:00 -11,0 -12,6 11 6 N 40 -
13.12.2018 21:00:00 -10,6 -13,5 0 0 N 30 -
13.12.2018 20:00:00 -9,8 -13,4 0 0 N 30 -
13.12.2018 19:00:00 -9,6 -14,6 0 0 N 30 -
13.12.2018 18:00:00 -9,6 -15,7 8 4 N 30 -
13.12.2018 17:00:00 -9,0 -15,8 0 0 N 30 30
13.12.2018 16:00:00 -8,8 -16,2 0 0 N 30 42
13.12.2018 15:00:00 -8,8 -15,4 5 3 NNE 30 36
13.12.2018 14:00:00 -9,0 -15,3 0 0 N 40 60
13.12.2018 13:00:00 -9,2 -15,5 0 0 N 50 60
13.12.2018 12:00:00 -9,6 -15,9 4 2 N 50 60
13.12.2018 11:00:00 -10,0 -15,1 9 5 S 50 60
13.12.2018 10:00:00 -10,4 -16,5 11 6 S 50 60
13.12.2018 09:00:00 -10,6 -15,9 11 6 S 50 60
13.12.2018 08:00:00 -11,0 -15,7 15 8 S 50 6
13.12.2018 07:00:00 -11,4 -16,3 15 8 S 50 -
13.12.2018 06:00:00 -11,4 -18,6 11 6 S 70 -
13.12.2018 05:00:00 -11,0 -18,3 15 8 S 80 -
13.12.2018 04:00:00 -10,8 -18,3 11 6 S 80 -
13.12.2018 03:00:00 -10,6 -18,3 11 6 S 70 -
13.12.2018 02:00:00 -10,2 -18,0 11 6 S 70 -
13.12.2018 01:00:00 -10,0 -18,0 15 8 S 70 -
13.12.2018 00:00:00 -10,0 -18,2 15 8 S 70 -
12.12.2018 23:00:00 -10,0 -18,5 13 7 S 70 -
12.12.2018 22:00:00 -10,0 -18,7 13 7 S 80 -
12.12.2018 21:00:00 -9,6 -18,6 9 5 S 80 -
12.12.2018 20:00:00 -9,2 -18,2 11 6 S 80 -
12.12.2018 19:00:00 -8,8 -16,7 18 10 N 80 -
12.12.2018 18:00:00 -8,0 -16,4 18 10 N 80 -
12.12.2018 17:00:00 -8,6 -17,6 15 8 N 80 6
12.12.2018 16:00:00 -9,0 -17,5 15 8 N 80 60
12.12.2018 15:00:00 -9,0 -17,5 15 8 N 80 60
12.12.2018 14:00:00 -9,0 -17,5 18 10 N 80 60
12.12.2018 13:00:00 -9,4 -17,2 18 10 N 80 60
12.12.2018 12:00:00 -10,0 -17,1 37 20 N 80 60
12.12.2018 11:00:00 -10,6 -17,3 18 10 N 80 60
12.12.2018 10:00:00 -11,4 -18,0 34 18 N 80 60
12.12.2018 09:00:00 -12,0 -18,2 37 20 N 80 60
12.12.2018 08:00:00 -12,2 -18,2 41 22 N 80 0
12.12.2018 07:00:00 -12,4 -18,2 41 22 N 80 -
12.12.2018 06:00:00 -12,0 -18,2 37 20 N 80 -
12.12.2018 05:00:00 -11,8 -18,4 37 20 N 80 -
12.12.2018 04:00:00 -11,4 -18,9 34 18 N 80 -
12.12.2018 03:00:00 -11,2 -19,1 37 20 N 80 -
12.12.2018 02:00:00 -11,2 -18,9 28 15 N 80 -
12.12.2018 01:00:00 -11,4 -18,7 28 15 N 80 -
12.12.2018 00:00:00 -11,0 -18,3 28 15 N 80 -
11.12.2018 23:00:00 -11,0 -18,3 28 15 N 80 -
11.12.2018 22:00:00 -10,8 -18,1 28 15 N 80 -
11.12.2018 21:00:00 -10,8 -17,9 26 14 N 80 -
11.12.2018 20:00:00 -10,0 -17,3 18 10 N 80 -
11.12.2018 19:00:00 -10,0 -17,3 18 10 N 80 -
11.12.2018 18:00:00 -9,6 -17,4 18 10 N 80 -
11.12.2018 17:00:00 -9,2 -17,3 13 7 N 80 12
11.12.2018 16:00:00 -9,0 -16,4 13 7 N 80 60
11.12.2018 15:00:00 -8,8 -15,6 11 6 N 80 60
11.12.2018 14:00:00 -9,0 -15,5 9 5 N 80 60
11.12.2018 13:00:00 -9,0 -15,0 11 6 N 80 60
11.12.2018 12:00:00 -9,0 -14,6 9 5 N 80 60
11.12.2018 11:00:00 -9,2 -16,1 8 4 N 80 60
11.12.2018 10:00:00 -9,6 -16,7 8 4 N 75 60
11.12.2018 09:00:00 -9,8 -15,9 35 19 NNO 80 36
11.12.2018 08:00:00 -10,2 -11,5 37 20 NNO 80 0
11.12.2018 07:00:00 -9,8 -11,3 24 13 NNO 75 -
11.12.2018 06:00:00 -9,8 -9,8 22 12 N 0,9 -
11.12.2018 05:00:00 -9,4 -9,9 13 7 S 0,3 -
11.12.2018 04:00:00 -9,0 -10,9 11 6 S 0,1 -
11.12.2018 03:00:00 -7,4 -13,4 9 5 SSE 70 -
11.12.2018 02:00:00 -7,0 -15,0 11 6 ONO 70 -
11.12.2018 01:00:00 -7,0 -15,0 11 6 N 70 -
11.12.2018 00:00:00 -7,0 -14,3 11 6 SSO 70 -
10.12.2018 23:00:00 -6,8 -15,5 15 8 NO 70 -
10.12.2018 22:00:00 -7,2 -14,5 15 8 NO 70 -
10.12.2018 21:00:00 -7,0 -16,1 18 10 ONO 70 -
10.12.2018 20:00:00 -7,0 -16,1 22 12 NO 70 -
10.12.2018 19:00:00 -7,1 -16,8 26 14 NO 70 -
10.12.2018 18:00:00 -6,0 -17,1 28 15 ONO 70 -
10.12.2018 17:00:00 -6,1 -16,4 29 16 NO 80 24
10.12.2018 16:00:00 -5,8 -14,1 18 10 SE 75 60
10.12.2018 15:00:00 -5,8 -13,2 21 11 N 75 60
10.12.2018 14:00:00 -5,8 -10,4 15 8 NNO 75 60
10.12.2018 13:00:00 -5,4 -11,7 22 12 NO 75 60
10.12.2018 12:00:00 -5,0 -12,2 24 13 NNO 75 60
10.12.2018 11:00:00 -6,6 -13,5 22 12 NO 75 60
10.12.2018 10:00:00 -6,0 -14,0 28 15 ONO 80 60
10.12.2018 09:00:00 -6,1 -13,5 29 16 ONO 80 12
10.12.2018 08:00:00 -6,0 -13,1 37 20 N 80 0
10.12.2018 07:00:00 -5,4 -13,0 41 22 N 70 -
10.12.2018 06:00:00 -5,5 -11,4 44 24 N 70 -
10.12.2018 05:00:00 -5,4 -9,3 41 22 NNO 70 -
10.12.2018 04:00:00 -5,4 -8,8 42 23 N 70 -
10.12.2018 03:00:00 -3,0 -7,2 22 12 N 70 -
10.12.2018 02:00:00 -3,2 -10,1 22 12 N 70 -
10.12.2018 01:00:00 -2,8 -10,6 15 8 SSO 70 -
10.12.2018 00:00:00 -2,8 -10,3 9 5 SSO 70 -
09.12.2018 23:00:00 -3,4 -8,3 4 2 N 70 -
09.12.2018 22:00:00 -3,2 -8,3 4 2 N 60 -
09.12.2018 21:00:00 -3,0 -10,3 0 0 N 60 -
09.12.2018 20:00:00 -3,0 -9,5 5 3 OSO 70 -
09.12.2018 19:00:00 -2,4 -11,7 24 13 SSO 70 -
09.12.2018 18:00:00 -2,2 -13,1 16 9 SSO 60 -
09.12.2018 17:00:00 -2,2 -13,4 18 10 S 75 0
09.12.2018 16:00:00 -1,6 -12,3 28 15 NNO 60 36
09.12.2018 15:00:00 -1,8 -11,1 5 3 N 60 30
09.12.2018 14:00:00 -2,0 -7,1 9 5 N 60 24
09.12.2018 13:00:00 -2,0 -7,3 8 4 N 60 60
09.12.2018 12:00:00 -2,4 -5,4 15 8 N 0,6 48
09.12.2018 11:00:00 -1,6 -6,2 18 10 N 7 12
09.12.2018 10:00:00 -2,0 -8,3 11 6 NNO 60 54
09.12.2018 09:00:00 -2,7 -9,0 18 10 OSO 70 60
09.12.2018 08:00:00 -2,8 -9,1 52 28 SO 75 6
09.12.2018 07:00:00 -2,0 -8,7 52 28 SO 70 -
09.12.2018 06:00:00 -2,2 -8,9 48 26 OSO 70 -
09.12.2018 05:00:00 -2,0 -9,4 41 22 SO 70 -
09.12.2018 04:00:00 -2,2 -10,0 42 23 SO 70 -
09.12.2018 03:00:00 -3,4 -11,8 46 25 SSO 60 -
09.12.2018 02:00:00 -4,1 -12,7 24 13 SSO 60 -
09.12.2018 01:00:00 -3,7 -13,6 22 12 SO 60 -
09.12.2018 00:00:00 -2,0 -14,1 16 9 SO 60 -
08.12.2018 23:00:00 -3,3 -14,4 8 4 NNE 60 -
08.12.2018 22:00:00 -2,5 -14,5 11 6 SSO 60 -
08.12.2018 21:00:00 -2,3 -15,7 8 4 N 60 -
08.12.2018 20:00:00 -3,4 -16,0 5 3 N 60 -
08.12.2018 19:00:00 -3,8 -16,0 5 3 S 60 -
08.12.2018 18:00:00 -3,8 -16,4 0 0 N 60 -
08.12.2018 17:00:00 -3,6 -15,3 5 3 N 80 30
08.12.2018 16:00:00 -3,2 -16,5 0 0 N 75 60
08.12.2018 15:00:00 -3,0 -16,7 0 0 N 75 60
08.12.2018 14:00:00 -3,6 -16,8 0 0 N 75 60
08.12.2018 13:00:00 -3,8 -14,8 4 2 - 80 60
08.12.2018 12:00:00 -4,6 -14,5 5 3 N 75 60
08.12.2018 11:00:00 -5,0 -13,6 34 18 ONO 75 60
08.12.2018 10:00:00 -5,0 -16,5 34 18 ONO 75 60
08.12.2018 09:00:00 -6,0 -14,5 34 18 NO 80 30
08.12.2018 08:00:00 -5,6 -13,9 52 28 N 80 0
08.12.2018 07:00:00 -5,6 -11,1 55 30 N 50 0
08.12.2018 06:00:00 -5,1 -6,9 48 26 N 40 -
08.12.2018 05:00:00 -4,4 -4,4 42 23 N 0,9 -
08.12.2018 04:00:00 -3,5 -3,5 37 20 N 0,3 -
08.12.2018 03:00:00 -1,1 -1,1 11 6 N - -
08.12.2018 02:00:00 -1,2 -1,2 22 12 SO - -
08.12.2018 01:00:00 -1,4 -1,4 41 22 SO - -
08.12.2018 00:00:00 -1,4 -1,4 35 19 SO - -
07.12.2018 23:00:00 -1,6 -1,6 31 17 SO - -
07.12.2018 22:00:00 -2,0 -2,0 29 16 SO - -

tt = Temperatura
td = dewpoint
ff = velocità del vento
dd = direzione del vento
vv = visibility
sd = ore di luce

Stazioni seguenti

WeatherPro
AMSI
MeteoEarth